[[{"header":{"parameterUnit":"m.s-1","parameterCategory":1,"la1":30.2991,"la2":30.254,"lo1":-89.0895,"lo2":-89.0444,"dy":0.0017,"dx":0.0017,"nx":28,"ny":28,"refTime":"2025-06-13T03:00:00:Z","depth":0,"parameterNumber":2,"parameterNumberName":"U-component_of_WINDS"},"data":[0,0,0,0,0,0,0,0,0,0,0,0,0,0,0,0,0,0,0,0,0,0,0,0,0,0,0,0,0,0,0,0,0,0,0,0,0,0,0,0,0,0,0,0,0,0,0,0,0,0,0,0,0,0,0,0,0,0,-0.0844,-0.0844,0,-0.0851,-0.0851,-0.0851,-0.084,-0.0839,-0.0839,-0.0839,-0.0848,-0.0849,-0.0849,0,0,0,0,0,0,0,0,0,0,0,0,0,-0.0822,-0.0823,-0.0844,-0.0844,-0.0844,-0.0851,-0.0851,-0.0851,-0.084,-0.0839,-0.0839,-0.0838,-0.0848,-0.0848,-0.0849,0,0,0,0,0,0,0,0,0,0,0,0,0,-0.0831,-0.0823,-0.0844,-0.0839,-0.0839,-0.0851,-0.0851,-0.0851,-0.084,-0.0839,-0.0839,-0.0838,-0.0848,-0.0848,-0.0849,-0.0867,0,0,-0.0852,-0.0853,0,0,0,0,0,0,0,0,-0.083,-0.0832,-0.084,-0.0839,-0.0839,-0.0844,-0.0847,-0.0856,-0.084,-0.084,-0.0839,-0.0838,-0.0847,-0.0848,-0.0851,-0.0867,-0.0868,-0.0852,-0.0853,-0.0853,-0.0853,0,0,0,0,0,0,0,-0.083,-0.0831,-0.0847,-0.084,-0.0839,-0.0837,-0.0838,-0.0849,-0.0847,-0.084,-0.0839,-0.084,-0.0847,-0.085,-0.0851,-0.0868,-0.0852,-0.0853,-0.0854,-0.0854,-0.0899,-0.09,0,0,0,0,0,0,-0.0829,-0.0831,-0.0846,-0.0847,-0.0833,-0.0838,-0.0839,-0.0843,-0.0846,-0.0846,-0.084,-0.0839,-0.0849,-0.085,-0.0851,-0.0872,-0.0853,-0.0854,-0.0855,-0.0899,-0.09,-0.09,0,0,0,0,0,0,-0.0829,-0.0831,-0.0846,-0.0839,-0.084,-0.0839,-0.0844,-0.0843,-0.0846,-0.0847,-0.0847,-0.0843,-0.0848,-0.085,-0.0863,-0.0872,-0.0854,-0.0855,-0.0898,-0.0899,-0.09,-0.0914,0,0,0,0,0,0,-0.0828,-0.0831,-0.0837,-0.0839,-0.0841,-0.0857,-0.0844,-0.0844,-0.0848,-0.0846,-0.085,-0.085,-0.0848,-0.0862,-0.0864,-0.0873,-0.0856,-0.0897,-0.0898,-0.09,-0.0913,-0.0916,-0.0918,0,0,0,0,0,-0.0828,-0.0841,-0.0837,-0.0839,-0.0848,-0.0858,-0.0859,-0.0856,-0.0848,-0.0855,-0.0855,-0.085,-0.0871,-0.0863,-0.0865,-0.0875,-0.0897,-0.0898,-0.09,-0.0912,-0.0915,-0.0918,0,0,0,0,0,0,-0.0841,-0.0841,-0.0837,-0.0851,-0.0854,-0.0856,-0.0864,-0.0859,-0.0865,-0.0864,-0.086,-0.0861,-0.0875,-0.0876,-0.0868,-0.0893,-0.0883,-0.0885,-0.0891,-0.0894,-0.0897,-0.0896,-0.0857,0,0,0,0,0,-0.0846,-0.0853,-0.0853,-0.0865,-0.0867,-0.0865,-0.0869,-0.0866,-0.087,-0.0871,-0.0872,-0.0877,-0.0884,-0.0889,-0.0896,-0.0913,-0.0914,-0.0921,-0.0924,-0.0926,-0.0928,-0.0937,-0.0941,-0.0905,-0.0905,-0.0905,0,0,-0.0855,-0.0856,-0.0861,-0.0868,-0.087,-0.0878,-0.0866,-0.0875,-0.0881,-0.0873,-0.0885,-0.0886,-0.0891,-0.0906,-0.0912,-0.0908,-0.0938,-0.0928,-0.0929,-0.093,-0.0939,-0.0943,-0.0946,-0.0906,-0.0906,-0.0906,0,0,-0.0877,-0.0878,-0.0889,-0.0891,-0.0894,-0.0893,-0.0896,-0.0898,-0.0898,-0.091,-0.0904,-0.0911,-0.0924,-0.0928,-0.0931,-0.0954,-0.095,-0.0957,-0.097,-0.0979,-0.0982,-0.0985,-0.0993,-0.0997,-0.0959,-0.0959,-0.0959,0,-0.0889,-0.09,-0.0895,-0.0905,-0.0908,-0.09,-0.0911,-0.0914,-0.0919,-0.0922,-0.0916,-0.0933,-0.0935,-0.0951,-0.0957,-0.096,-0.0963,-0.0956,-0.0982,-0.0984,-0.0987,-0.0995,-0.0998,-0.0959,-0.0959,-0.0959,-0.0959,0,-0.0915,-0.0923,-0.0931,-0.0936,-0.094,-0.0951,-0.0948,-0.0953,-0.095,-0.095,-0.0962,-0.0965,-0.0972,-0.0976,-0.0973,-0.0992,-0.0989,-0.0982,-0.0972,-0.0991,-0.0999,-0.1002,-0.0961,-0.096,-0.096,-0.096,0,0,-0.0946,-0.0948,-0.0951,-0.0953,-0.0956,-0.0962,-0.0973,-0.0979,-0.0984,-0.0988,-0.0997,-0.1008,-0.1002,-0.1006,-0.1004,-0.1012,-0.1031,-0.1005,-0.1005,-0.101,-0.1052,-0.1057,-0.1061,-0.1027,-0.1028,-0.1028,-0.1052,0,-0.0968,-0.0985,-0.0981,-0.0998,-0.1006,-0.0998,-0.1007,-0.101,-0.1009,-0.1016,-0.1016,-0.1025,-0.1016,-0.1018,-0.1026,-0.1027,-0.1039,-0.1025,-0.1036,-0.1037,-0.1036,-0.1065,-0.1071,-0.1093,-0.1055,-0.1056,-0.1056,0,-0.0997,-0.1001,-0.1019,-0.102,-0.1023,-0.1031,-0.1037,-0.1044,-0.1047,-0.1046,-0.1051,-0.1047,-0.1057,-0.1046,-0.1062,-0.1052,-0.1057,-0.1058,-0.1058,-0.106,-0.1048,-0.1068,-0.11,-0.1104,-0.1061,-0.106,-0.106,0,-0.1019,-0.1029,-0.1041,-0.1043,-0.1045,-0.1051,-0.1052,-0.1055,-0.1059,-0.1065,-0.1067,-0.1074,-0.1078,-0.1084,-0.1082,-0.1074,-0.1098,-0.1087,-0.1098,-0.1098,-0.1104,-0.1104,-0.1138,-0.1106,-0.1106,-0.1106,-0.1106,0,-0.1045,-0.1056,-0.1051,-0.1059,-0.1071,-0.1066,-0.1079,-0.1079,-0.1082,-0.109,-0.1083,-0.1091,-0.1088,-0.1095,-0.1094,-0.1107,-0.1109,-0.1109,-0.1109,-0.111,-0.111,-0.1114,-0.1112,-0.1107,-0.1106,-0.1106,-0.1106,0,-0.1072,-0.1069,-0.1082,-0.1082,-0.1082,-0.1092,-0.1092,-0.11,-0.1099,-0.1109,-0.1111,-0.111,-0.1118,-0.1117,-0.1126,-0.1125,-0.1142,-0.114,-0.1141,-0.1141,-0.1153,-0.1152,-0.1191,-0.1196,-0.1159,-0.116,-0.116,0,-0.1089,-0.1098,-0.1099,-0.1103,-0.1105,-0.1112,-0.1116,-0.1112,-0.1116,-0.1121,-0.1128,-0.1136,-0.1142,-0.1156,-0.1157,-0.1164,-0.1162,-0.1175,-0.1163,-0.1164,-0.1163,-0.1163,-0.1164,-0.1178,-0.1178,-0.1178,-0.1179,0,-0.1121,-0.1119,-0.1124,-0.113,-0.1135,-0.1139,-0.1142,-0.1147,-0.1142,-0.1148,-0.1156,-0.1161,-0.1171,-0.1179,-0.1186,-0.1188,-0.1183,-0.1182,-0.1185,-0.1188,-0.1188,-0.1189,-0.1148,-0.1182,-0.1181,-0.1181,-0.1181,-0.1181,-0.1144,-0.1152,-0.1153,-0.116,-0.1162,-0.1165,-0.1172,-0.1172,-0.1178,-0.1185,-0.1182,-0.1192,-0.1195,-0.1204,-0.1206,-0.1215,-0.121,-0.1214,-0.1216,-0.1217,-0.1219,-0.1186,-0.1216,-0.1216,-0.1216,-0.1215,-0.1215,0,-0.1176,-0.1177,-0.1183,-0.1188,-0.1193,-0.1186,-0.119,-0.1195,-0.1204,-0.1207,-0.1213,-0.1222,-0.123,-0.1231,-0.1238,-0.1245,-0.1243,-0.1247,-0.1247,-0.1248,-0.1222,-0.1219,-0.1248,-0.1248,-0.1248,-0.1248,-0.1248,-0.1248,-0.1194,-0.1205,-0.1203,-0.1216,-0.1217,-0.1226,-0.1228,-0.1232,-0.1234,-0.1245,-0.1251,-0.1251,-0.1253,-0.1261,-0.1268,-0.1268,-0.1272,-0.1277,-0.1276,-0.1253,-0.1249,-0.1246,-0.1243,-0.1277,-0.1277,-0.1301,-0.1301,-0.1301]},{"header":{"parameterUnit":"m.s-1","parameterCategory":1,"la1":30.2991,"la2":30.254,"lo1":-89.0895,"lo2":-89.0444,"dy":0.0017,"dx":0.0017,"nx":28,"ny":28,"refTime":"2025-06-13T03:00:00:Z","depth":0,"parameterNumber":3,"parameterNumberName":"V-component_of_WINDS"},"data":[0,0,0,0,0,0,0,0,0,0,0,0,0,0,0,0,0,0,0,0,0,0,0,0,0,0,0,0,0,0,0,0,0,0,0,0,0,0,0,0,0,0,0,0,0,0,0,0,0,0,0,0,0,0,0,0,0,0,5.5553,5.5554,0,5.5714,5.5716,5.5718,5.5774,5.5774,5.5773,5.5773,5.5927,5.5931,5.5936,0,0,0,0,0,0,0,0,0,0,0,0,0,5.5283,5.5287,5.5553,5.5555,5.5557,5.5714,5.5716,5.5718,5.5774,5.5774,5.5773,5.5772,5.5925,5.5931,5.5936,0,0,0,0,0,0,0,0,0,0,0,0,0,5.5417,5.5289,5.5552,5.5604,5.561,5.5713,5.5716,5.5719,5.5775,5.5774,5.5773,5.5772,5.5923,5.593,5.5937,5.5997,0,0,5.5958,5.5961,0,0,0,0,0,0,0,0,5.541,5.5427,5.5594,5.5601,5.5608,5.5724,5.5678,5.5812,5.5775,5.5712,5.5773,5.5772,5.5859,5.5871,5.5903,5.6004,5.6011,5.5959,5.5963,5.5966,5.5968,0,0,0,0,0,0,0,5.54,5.542,5.5616,5.5597,5.5605,5.5616,5.5634,5.5703,5.5788,5.5717,5.5722,5.5741,5.5862,5.5896,5.5907,5.6013,5.5959,5.5965,5.5969,5.5972,5.6173,5.6174,0,0,0,0,0,0,5.5384,5.5412,5.5611,5.5621,5.5505,5.5621,5.5642,5.5687,5.5787,5.5802,5.5741,5.5743,5.5885,5.5899,5.5913,5.5992,5.5966,5.5973,5.5977,5.6172,5.6173,5.6174,0,0,0,0,0,0,5.5378,5.5401,5.5605,5.5518,5.5545,5.5627,5.5677,5.5691,5.5725,5.5806,5.582,5.5761,5.5885,5.5903,5.5977,5.5997,5.5976,5.5982,5.617,5.6172,5.6174,5.6148,0,0,0,0,0,0,5.537,5.5398,5.5425,5.5518,5.5549,5.5669,5.5679,5.5694,5.5738,5.5741,5.5828,5.5841,5.5885,5.5966,5.5984,5.6007,5.5987,5.6169,5.6171,5.6173,5.6147,5.6149,5.615,0,0,0,0,0,5.536,5.5408,5.5426,5.5449,5.5584,5.567,5.5687,5.574,5.5739,5.5765,5.5817,5.5839,5.5992,5.5973,5.5993,5.6019,5.6168,5.617,5.6173,5.6147,5.6148,5.615,0,0,0,0,0,0,5.531,5.5421,5.5442,5.5523,5.5587,5.568,5.5714,5.574,5.5803,5.5803,5.5862,5.5881,5.5951,5.5992,5.5969,5.6083,5.6081,5.6088,5.6054,5.6056,5.6057,5.6046,5.5993,0,0,0,0,0,5.531,5.5374,5.5465,5.5527,5.5559,5.5631,5.567,5.5706,5.5773,5.5799,5.5857,5.5918,5.5981,5.602,5.6082,5.6153,5.6172,5.618,5.6181,5.6182,5.6187,5.6229,5.6233,5.6183,5.6183,5.6183,0,0,5.5307,5.5376,5.5412,5.5519,5.5574,5.5636,5.5653,5.5718,5.5764,5.5808,5.5883,5.5927,5.5999,5.6073,5.6108,5.6109,5.6205,5.6185,5.6185,5.619,5.6232,5.6236,5.6241,5.6185,5.6184,5.6184,0,0,5.5335,5.5394,5.5453,5.5508,5.5591,5.5639,5.5652,5.5742,5.5774,5.5851,5.5886,5.5939,5.6045,5.6096,5.6136,5.6184,5.6206,5.6201,5.6208,5.6248,5.6252,5.6256,5.6274,5.6279,5.6206,5.6206,5.6206,0,5.5321,5.542,5.5479,5.5544,5.559,5.5636,5.5696,5.5744,5.5841,5.587,5.5871,5.6006,5.6058,5.6145,5.6157,5.6187,5.6203,5.6193,5.6247,5.6251,5.6256,5.6274,5.628,5.6205,5.6205,5.6206,5.6206,0,5.5399,5.5467,5.5504,5.5602,5.5652,5.5713,5.5778,5.5821,5.5851,5.5898,5.5975,5.6039,5.6115,5.6138,5.6166,5.6228,5.6227,5.6236,5.6236,5.6259,5.6277,5.6284,5.6204,5.6204,5.6205,5.6205,0,0,5.5401,5.5533,5.5546,5.5591,5.5687,5.5739,5.58,5.5879,5.5915,5.5979,5.6032,5.6121,5.6132,5.6176,5.6211,5.6245,5.6281,5.6251,5.6253,5.6255,5.6354,5.6347,5.6354,5.6296,5.6297,5.6298,5.6348,0,5.5444,5.5562,5.5617,5.571,5.5773,5.5818,5.5872,5.5934,5.5979,5.6036,5.6083,5.6146,5.6154,5.6182,5.6218,5.6269,5.6301,5.6266,5.6344,5.6346,5.6327,5.6364,5.6357,5.6401,5.6355,5.6356,5.6357,0,5.5509,5.558,5.568,5.5769,5.5797,5.5846,5.5923,5.5977,5.6048,5.6078,5.6129,5.6163,5.6227,5.6221,5.631,5.6284,5.6319,5.6348,5.6351,5.6361,5.6354,5.6376,5.6416,5.6423,5.6369,5.6368,5.6367,0,5.5503,5.5622,5.5698,5.5735,5.584,5.5873,5.5918,5.5989,5.6033,5.6098,5.6127,5.6197,5.6235,5.6287,5.6338,5.6329,5.6422,5.642,5.6447,5.6446,5.6466,5.6464,5.6513,5.6485,5.6485,5.6485,5.6485,0,5.5546,5.5606,5.5697,5.5744,5.5811,5.5872,5.5936,5.5983,5.6046,5.61,5.614,5.619,5.6254,5.631,5.6349,5.6417,5.6433,5.6458,5.6468,5.6456,5.6453,5.648,5.6479,5.6487,5.6486,5.6486,5.6486,0,5.5552,5.5615,5.5702,5.5795,5.582,5.5866,5.5945,5.599,5.6037,5.6105,5.6124,5.6196,5.6265,5.6321,5.6409,5.6436,5.6507,5.6517,5.6485,5.6491,5.6515,5.6513,5.6585,5.6598,5.6559,5.6559,5.656,0,5.5576,5.5624,5.5724,5.5766,5.5812,5.5877,5.5923,5.5983,5.6029,5.6114,5.6149,5.6221,5.6283,5.639,5.6448,5.6516,5.6529,5.655,5.654,5.6526,5.6531,5.6529,5.6534,5.6551,5.6551,5.6551,5.6551,0,5.5612,5.5642,5.571,5.5788,5.5844,5.5907,5.5971,5.6001,5.6073,5.6121,5.6195,5.6243,5.6336,5.6407,5.6481,5.6523,5.6549,5.6554,5.6564,5.6553,5.6533,5.6546,5.6489,5.6553,5.6552,5.6552,5.6552,5.6552,5.563,5.5675,5.5754,5.5827,5.5883,5.5942,5.599,5.6044,5.6108,5.6191,5.6221,5.6296,5.6364,5.6468,5.651,5.6568,5.657,5.6584,5.6588,5.6591,5.6591,5.6523,5.6581,5.6581,5.6581,5.6581,5.6581,0,5.567,5.5723,5.579,5.5882,5.5939,5.5961,5.6033,5.6079,5.6146,5.621,5.6271,5.6354,5.6424,5.6488,5.6559,5.6593,5.6606,5.661,5.6608,5.6618,5.6583,5.6569,5.6598,5.6598,5.6598,5.6598,5.6598,5.6598,5.5698,5.5777,5.5815,5.5921,5.5972,5.605,5.6089,5.6143,5.6195,5.6288,5.6348,5.639,5.6453,5.653,5.6594,5.661,5.6635,5.6636,5.6655,5.6622,5.662,5.6618,5.6604,5.664,5.664,5.6685,5.6686,5.6686]}]]